TimeCDT,TemperatureF,Dew PointF,Humidity,Sea Level PressureIn,VisibilityMPH,Wind Direction,Wind SpeedMPH,Gust SpeedMPH,PrecipitationIn,Events,Conditions,WindDirDegrees,DateUTC
12:55 AM,15.8,8.6,73,30.12,10.0,NW,3.5,-,N/A,,Clear,310,2013-03-21 05:55:00
1:55 AM,17.1,10.0,74,30.16,10.0,North,3.5,-,N/A,,Clear,360,2013-03-21 06:55:00
2:55 AM,16.0,9.0,74,30.15,10.0,NNE,6.9,-,N/A,,Clear,20,2013-03-21 07:55:00
3:55 AM,15.1,9.0,77,30.14,10.0,NNE,4.6,-,N/A,,Clear,20,2013-03-21 08:55:00
4:55 AM,15.1,9.0,77,30.14,10.0,North,3.5,-,N/A,,Clear,360,2013-03-21 09:55:00
5:55 AM,12.9,7.0,77,30.15,10.0,NNE,5.8,-,N/A,,Clear,20,2013-03-21 10:55:00
6:55 AM,12.9,8.1,81,30.16,10.0,North,3.5,-,N/A,,Clear,360,2013-03-21 11:55:00
7:55 AM,16.0,10.0,77,30.16,10.0,NNE,4.6,-,N/A,,Clear,20,2013-03-21 12:55:00
8:55 AM,19.0,10.9,71,30.16,10.0,ENE,6.9,-,N/A,,Clear,70,2013-03-21 13:55:00
9:55 AM,19.9,10.0,65,30.15,10.0,SE,3.5,-,N/A,,Clear,130,2013-03-21 14:55:00
10:55 AM,23.0,10.9,60,30.15,10.0,Calm,Calm,-,N/A,,Clear,0,2013-03-21 15:55:00
11:55 AM,27.0,12.0,53,30.13,10.0,SE,5.8,-,N/A,,Clear,140,2013-03-21 16:55:00
12:55 PM,28.9,12.0,49,30.10,10.0,Variable,4.6,-,N/A,,Scattered Clouds,0,2013-03-21 17:55:00
1:55 PM,32.0,12.9,45,30.06,10.0,SSE,5.8,-,N/A,,Clear,150,2013-03-21 18:55:00
2:55 PM,34.0,15.1,46,30.03,10.0,SE,5.8,-,N/A,,Clear,130,2013-03-21 19:55:00
3:55 PM,34.0,14.0,44,30.01,10.0,ENE,8.1,-,N/A,,Overcast,70,2013-03-21 20:55:00
4:55 PM,35.1,14.0,42,30.01,10.0,East,8.1,-,N/A,,Mostly Cloudy,100,2013-03-21 21:55:00
5:55 PM,33.1,15.1,48,30.01,10.0,ENE,6.9,-,N/A,,Scattered Clouds,60,2013-03-21 22:55:00
6:55 PM,32.0,15.1,50,30.01,10.0,East,4.6,-,N/A,,Mostly Cloudy,80,2013-03-21 23:55:00
7:55 PM,30.0,16.0,56,30.02,10.0,East,3.5,-,N/A,,Clear,80,2013-03-22 00:55:00
8:55 PM,30.0,15.1,54,30.04,10.0,East,6.9,-,N/A,,Overcast,90,2013-03-22 01:55:00
9:55 PM,27.0,16.0,63,30.04,10.0,East,4.6,-,N/A,,Scattered Clouds,80,2013-03-22 02:55:00
10:55 PM,27.0,16.0,63,30.05,10.0,ENE,3.5,-,N/A,,Clear,70,2013-03-22 03:55:00
11:55 PM,25.0,15.1,66,30.05,10.0,East,4.6,-,N/A,,Clear,80,2013-03-22 04:55:00